[[{"header":{"parameterUnit":"m.s-1","parameterCategory":1,"la1":30.2991,"la2":30.254,"lo1":-89.0895,"lo2":-89.0444,"dy":0.0017,"dx":0.0017,"nx":28,"ny":28,"refTime":"2025-01-30T09:00:00:Z","depth":0,"parameterNumber":2,"parameterNumberName":"U-component_of_WINDS"},"data":[0,0,0,0,0,0,0,0,0,0,0,0,0,0,0,0,0,0,0,0,0,0,0,0,0,0,0,0,0,0,0,0,0,0,0,0,0,0,0,0,0,0,0,0,0,0,0,0,0,0,0,0,0,0,0,0,0,0,3.2851,3.2851,0,3.2789,3.2789,3.2788,3.2704,3.2702,3.2701,3.2699,3.2639,3.2639,3.2639,0,0,0,0,0,0,0,0,0,0,0,0,0,3.2903,3.2903,3.2851,3.2851,3.285,3.279,3.2789,3.2788,3.2704,3.2702,3.27,3.2699,3.264,3.2639,3.2639,0,0,0,0,0,0,0,0,0,0,0,0,0,3.2865,3.2902,3.2851,3.2801,3.2795,3.279,3.2789,3.2788,3.2704,3.2702,3.27,3.2698,3.264,3.2639,3.2639,3.2679,0,0,3.2638,3.2637,0,0,0,0,0,0,0,0,3.2867,3.2863,3.2809,3.2804,3.2798,3.2752,3.2785,3.2751,3.2705,3.2739,3.2699,3.2697,3.2679,3.2675,3.2668,3.2676,3.2674,3.2638,3.2637,3.2637,3.2637,0,0,0,0,0,0,0,3.287,3.2865,3.2827,3.2808,3.2802,3.2783,3.2775,3.2778,3.2722,3.2736,3.273,3.2723,3.2676,3.2669,3.2666,3.2673,3.2638,3.2637,3.2637,3.2637,3.2715,3.2718,0,0,0,0,0,0,3.288,3.2868,3.2829,3.2825,3.2828,3.2784,3.2775,3.2769,3.2721,3.2712,3.2725,3.272,3.2671,3.2667,3.2664,3.271,3.2637,3.2637,3.2637,3.2713,3.2716,3.2718,0,0,0,0,0,0,3.2881,3.2877,3.2831,3.2845,3.2838,3.2785,3.2779,3.2769,3.2762,3.2713,3.2703,3.2728,3.2669,3.2664,3.2677,3.2707,3.2637,3.2636,3.271,3.2714,3.2717,3.2802,0,0,0,0,0,0,3.2883,3.2878,3.2891,3.2846,3.2837,3.2843,3.2781,3.2769,3.2761,3.2753,3.2713,3.2705,3.2667,3.2678,3.2676,3.2705,3.2636,3.2707,3.2712,3.2716,3.2796,3.2808,3.2818,0,0,0,0,0,3.2885,3.2917,3.2892,3.2887,3.2852,3.2845,3.284,3.2795,3.2764,3.2778,3.2747,3.2706,3.2704,3.268,3.2677,3.2706,3.2705,3.2711,3.2716,3.2791,3.2805,3.2817,0,0,0,0,0,0,3.2966,3.291,3.2881,3.2899,3.2878,3.2831,3.2846,3.2811,3.2798,3.2792,3.2737,3.2729,3.2749,3.2729,3.2703,3.2745,3.2699,3.2704,3.2757,3.277,3.2781,3.2785,3.2636,0,0,0,0,0,3.2986,3.2984,3.2935,3.2956,3.2947,3.2899,3.2894,3.2862,3.2837,3.2828,3.2798,3.2778,3.2773,3.277,3.2763,3.2793,3.2785,3.2813,3.2824,3.2833,3.2838,3.2856,3.2868,3.2736,3.2736,3.2736,0,0,3.3027,3.2996,3.2998,3.2972,3.2951,3.2952,3.2892,3.2894,3.2896,3.2829,3.2838,3.2817,3.2791,3.2813,3.2822,3.2797,3.2873,3.2839,3.2847,3.2847,3.2862,3.2875,3.2886,3.2739,3.2739,3.2738,0,0,3.3103,3.3079,3.3094,3.3076,3.3046,3.3015,3.3019,3.2979,3.2962,3.2971,3.2922,3.2924,3.2915,3.29,3.2891,3.2966,3.2929,3.2966,3.3022,3.304,3.3051,3.306,3.3089,3.31,3.2971,3.2971,3.2971,0,3.3158,3.3156,3.3107,3.3114,3.3106,3.3046,3.3064,3.3048,3.3018,3.3015,3.2988,3.2979,3.2956,3.2976,3.2995,3.2989,3.2995,3.2969,3.3053,3.3062,3.3069,3.3096,3.3107,3.2976,3.2975,3.2975,3.2974,0,3.3227,3.3227,3.3244,3.3216,3.321,3.3222,3.3178,3.3177,3.3147,3.312,3.3132,3.3104,3.3092,3.3094,3.3064,3.3111,3.3097,3.3063,3.3015,3.3087,3.3112,3.3122,3.2983,3.2981,3.2979,3.2978,0,0,3.3349,3.3297,3.3304,3.3293,3.3258,3.3258,3.327,3.3257,3.3259,3.3242,3.3252,3.3248,3.3217,3.3208,3.3175,3.3192,3.3257,3.3155,3.3154,3.3176,3.331,3.3337,3.3349,3.3233,3.3234,3.3236,3.3313,0,3.3418,3.3433,3.3392,3.3418,3.342,3.3366,3.3377,3.3358,3.3334,3.3334,3.3308,3.3307,3.3265,3.3259,3.3273,3.3246,3.3283,3.324,3.3243,3.3244,3.3251,3.3361,3.3388,3.3462,3.3322,3.3324,3.3325,0,3.35,3.3488,3.3515,3.3482,3.3481,3.3491,3.3479,3.3478,3.3457,3.3439,3.3431,3.3394,3.3406,3.3361,3.3379,3.335,3.335,3.3338,3.334,3.3338,3.3288,3.3364,3.3485,3.3496,3.3339,3.3338,3.3337,0,3.3589,3.3579,3.3594,3.3586,3.3548,3.3557,3.3542,3.3519,3.3516,3.3505,3.3503,3.3495,3.3491,3.3487,3.345,3.342,3.3473,3.3424,3.346,3.3461,3.3473,3.3472,3.3596,3.3472,3.3472,3.3472,3.3472,0,3.3671,3.3689,3.3634,3.3644,3.3665,3.3619,3.3642,3.3622,3.3603,3.3609,3.3563,3.3571,3.3522,3.3525,3.3497,3.3517,3.3515,3.3503,3.3495,3.3507,3.3509,3.3505,3.3499,3.3475,3.3474,3.3474,3.3473,0,3.3772,3.3735,3.3749,3.3713,3.3705,3.3722,3.3692,3.3701,3.3676,3.3685,3.3685,3.3646,3.3647,3.3611,3.3605,3.3587,3.362,3.3603,3.3627,3.3622,3.366,3.3657,3.3786,3.3801,3.3668,3.3669,3.367,0,3.3826,3.384,3.3806,3.3807,3.3795,3.3796,3.3793,3.3751,3.375,3.373,3.3742,3.3741,3.3736,3.3743,3.3715,3.3712,3.3694,3.374,3.3693,3.3706,3.3697,3.3696,3.3699,3.375,3.3751,3.3753,3.3754,0,3.3928,3.391,3.3907,3.3899,3.3897,3.3888,3.3877,3.3881,3.3835,3.3837,3.3838,3.3836,3.3831,3.3831,3.3823,3.381,3.3775,3.3769,3.3777,3.3789,3.3803,3.3798,3.3654,3.3766,3.3764,3.3764,3.3763,3.3762,3.4008,3.4019,3.3998,3.3997,3.3985,3.3976,3.3984,3.3961,3.3961,3.3954,3.3929,3.3936,3.3919,3.3905,3.3895,3.3901,3.3879,3.3891,3.3894,3.3897,3.3905,3.3803,3.39,3.3899,3.3899,3.3899,3.3898,0,3.4108,3.4093,3.4093,3.4079,3.408,3.4048,3.4035,3.4038,3.4044,3.4031,3.4029,3.4033,3.4034,3.4007,3.4005,3.4016,3.4,3.4017,3.4015,3.4013,3.3924,3.3918,3.4029,3.4029,3.4029,3.4029,3.4029,3.4029,3.416,3.4178,3.4159,3.4171,3.4156,3.4162,3.4158,3.4151,3.4141,3.4147,3.4148,3.4131,3.4114,3.4111,3.4111,3.4103,3.4105,3.4128,3.4115,3.4032,3.4019,3.4007,3.4001,3.4128,3.4128,3.4204,3.4205,3.4205]},{"header":{"parameterUnit":"m.s-1","parameterCategory":1,"la1":30.2991,"la2":30.254,"lo1":-89.0895,"lo2":-89.0444,"dy":0.0017,"dx":0.0017,"nx":28,"ny":28,"refTime":"2025-01-30T09:00:00:Z","depth":0,"parameterNumber":3,"parameterNumberName":"V-component_of_WINDS"},"data":[0,0,0,0,0,0,0,0,0,0,0,0,0,0,0,0,0,0,0,0,0,0,0,0,0,0,0,0,0,0,0,0,0,0,0,0,0,0,0,0,0,0,0,0,0,0,0,0,0,0,0,0,0,0,0,0,0,0,2.5041,2.5042,0,2.5146,2.5147,2.5149,2.516,2.5159,2.5158,2.5157,2.5265,2.5269,2.5273,0,0,0,0,0,0,0,0,0,0,0,0,0,2.485,2.4853,2.5041,2.5042,2.5044,2.5146,2.5147,2.5149,2.516,2.5159,2.5158,2.5157,2.5264,2.5269,2.5273,0,0,0,0,0,0,0,0,0,0,0,0,0,2.4942,2.4854,2.5041,2.5062,2.5065,2.5146,2.5148,2.5149,2.5161,2.5159,2.5157,2.5156,2.5263,2.5268,2.5274,2.5342,0,0,2.5292,2.5294,0,0,0,0,0,0,0,0,2.4936,2.4949,2.5057,2.506,2.5064,2.5138,2.512,2.5214,2.5161,2.5124,2.5157,2.5155,2.5224,2.5233,2.5257,2.5347,2.5351,2.5292,2.5296,2.5298,2.53,0,0,0,0,0,0,0,2.493,2.4944,2.5083,2.5059,2.5063,2.5066,2.5077,2.5138,2.5182,2.5127,2.5128,2.5141,2.5226,2.5251,2.5259,2.5353,2.5292,2.5297,2.5301,2.5303,2.5504,2.5506,0,0,0,0,0,0,2.492,2.4939,2.5079,2.5086,2.4995,2.507,2.5083,2.5116,2.5181,2.519,2.5142,2.5141,2.5242,2.5252,2.5263,2.5347,2.5298,2.5304,2.5307,2.5502,2.5504,2.5506,0,0,0,0,0,0,2.4916,2.4932,2.5075,2.5013,2.5031,2.5075,2.5112,2.5119,2.5144,2.5192,2.52,2.5159,2.5241,2.5255,2.5322,2.5351,2.5306,2.5311,2.55,2.5503,2.5505,2.5515,0,0,0,0,0,0,2.491,2.4931,2.4957,2.5013,2.5034,2.5132,2.5114,2.5122,2.5154,2.5154,2.5211,2.5219,2.5241,2.5313,2.5328,2.5358,2.5316,2.5498,2.5501,2.5505,2.5512,2.5518,2.5522,0,0,0,0,0,2.4903,2.4955,2.4958,2.4975,2.5068,2.5134,2.5146,2.517,2.5156,2.5183,2.5214,2.5217,2.5345,2.532,2.5336,2.5369,2.5496,2.55,2.5504,2.551,2.5517,2.5522,0,0,0,0,0,0,2.4902,2.4963,2.4967,2.5039,2.5081,2.5136,2.517,2.5176,2.5223,2.5221,2.5249,2.5262,2.5328,2.5355,2.5326,2.5438,2.5419,2.5427,2.5418,2.5425,2.543,2.5422,2.5321,0,0,0,0,0,2.4909,2.4958,2.5009,2.5068,2.5089,2.5126,2.5155,2.517,2.5215,2.5233,2.5269,2.5312,2.5362,2.5395,2.5444,2.5516,2.5529,2.5546,2.5551,2.5555,2.5562,2.5602,2.5611,2.552,2.552,2.552,0,0,2.4927,2.4966,2.4995,2.5068,2.5103,2.5152,2.5141,2.5193,2.5231,2.5241,2.5307,2.5334,2.5385,2.5455,2.5488,2.548,2.5589,2.556,2.5563,2.5568,2.5607,2.5616,2.5624,2.5523,2.5522,2.5522,0,0,2.4983,2.5018,2.5071,2.5105,2.5157,2.5182,2.5194,2.5248,2.5267,2.5333,2.5342,2.5386,2.5472,2.5508,2.5537,2.5606,2.5611,2.5621,2.5648,2.5687,2.5694,2.5701,2.5726,2.5735,2.5627,2.5627,2.5627,0,2.4998,2.5073,2.5097,2.515,2.5182,2.5193,2.5247,2.5279,2.5344,2.5366,2.5356,2.5464,2.5498,2.5577,2.5594,2.5617,2.5633,2.5615,2.5691,2.5698,2.5705,2.5729,2.5738,2.5628,2.5628,2.5628,2.5628,0,2.5088,2.514,2.5177,2.524,2.5275,2.5328,2.536,2.5394,2.5405,2.543,2.5498,2.554,2.5597,2.5617,2.5628,2.5697,2.5691,2.5686,2.5668,2.5714,2.5737,2.5747,2.563,2.5629,2.5629,2.5629,0,0,2.5148,2.5223,2.5236,2.5265,2.5323,2.5363,2.5417,2.5473,2.5501,2.5545,2.5591,2.5663,2.5659,2.5692,2.5707,2.5742,2.5795,2.5733,2.5734,2.5743,2.5873,2.5877,2.5888,2.5797,2.5799,2.5801,2.5869,0,2.5211,2.5307,2.533,2.5412,2.546,2.5471,2.5517,2.5558,2.5583,2.5627,2.5655,2.5706,2.5696,2.5716,2.575,2.5781,2.5821,2.5776,2.5841,2.5843,2.5829,2.59,2.5905,2.5967,2.5879,2.588,2.5881,0,2.5299,2.5345,2.5432,2.5484,2.5505,2.5546,2.5599,2.5642,2.5688,2.5704,2.574,2.5753,2.5808,2.5787,2.5864,2.5833,2.5861,2.588,2.5883,2.589,2.5865,2.591,2.5988,2.5997,2.5896,2.5895,2.5894,0,2.5334,2.5418,2.5481,2.5505,2.5567,2.5596,2.5623,2.5667,2.57,2.5746,2.5767,2.5819,2.5848,2.5888,2.5914,2.5896,2.599,2.597,2.6005,2.6004,2.6025,2.6024,2.6109,2.6041,2.6041,2.6041,2.6041,0,2.5403,2.5455,2.5497,2.5536,2.5595,2.5621,2.5679,2.5706,2.5746,2.579,2.5802,2.5844,2.5875,2.5921,2.5941,2.6002,2.6015,2.603,2.6035,2.6029,2.6027,2.6048,2.6045,2.6044,2.6043,2.6043,2.6042,0,2.5452,2.5483,2.5552,2.5605,2.5619,2.5661,2.5706,2.5744,2.5769,2.5825,2.5839,2.5878,2.5933,2.5962,2.603,2.6044,2.6113,2.6115,2.6097,2.61,2.6133,2.6129,2.6235,2.625,2.6172,2.6173,2.6173,0,2.5495,2.5536,2.5593,2.5624,2.5651,2.57,2.5733,2.576,2.5794,2.5849,2.5881,2.5935,2.5981,2.6067,2.6102,2.6154,2.6158,2.6191,2.6166,2.6159,2.6159,2.6157,2.6161,2.6196,2.6196,2.6197,2.6198,0,2.5567,2.558,2.5627,2.568,2.5719,2.5761,2.5803,2.5828,2.5861,2.5898,2.5954,2.5989,2.6058,2.6113,2.6168,2.6195,2.6203,2.6205,2.6216,2.6211,2.6199,2.6207,2.611,2.6203,2.6202,2.6202,2.6202,2.6201,2.5615,2.5652,2.5698,2.5751,2.5785,2.5824,2.5862,2.5892,2.5939,2.5997,2.601,2.6069,2.6114,2.6188,2.6218,2.6264,2.6257,2.6273,2.6277,2.6281,2.6283,2.6191,2.6274,2.6274,2.6274,2.6273,2.6273,0,2.5689,2.5719,2.5767,2.5825,2.5866,2.5869,2.5915,2.5949,2.6001,2.6043,2.6087,2.6151,2.6204,2.6242,2.6296,2.6326,2.633,2.6339,2.6338,2.6344,2.6285,2.627,2.6334,2.6334,2.6334,2.6334,2.6334,2.6334,2.5732,2.5795,2.5813,2.5893,2.5923,2.5981,2.6007,2.6043,2.6076,2.6147,2.6191,2.6216,2.6256,2.6313,2.6362,2.6372,2.6391,2.64,2.641,2.6355,2.6348,2.6342,2.6328,2.6404,2.6404,2.6466,2.6466,2.6467]}]]